Tracking 29892 objects as of 21-Nov-2024
HD Live streaming from Space Station
objects crossing your sky now

STARLINK-30418

Track STARLINK-30418 now!
10-day predictions
STARLINK-30418 is classified as:


NORAD ID: 57829
Int'l Code: 2023-138X
Perigee: 565.0 km
Apogee: 567.5 km
Inclination: 43.0 °
Period: 95.8 minutes
Semi major axis: 6937 km
RCS: Unknown
Launch date: September 9, 2023
Source: United States (US)
Launch site: AIR FORCE EASTERN TEST RANGE (AFETR)
Your satellite tracking list
Your tracking list is empty




NASA's NSSDC Master Catalog

Two Line Element Set (TLE):
1 57829U 23138X   24325.91959893  .00000558  00000-0  56415-4 0  9990
2 57829  43.0061 289.9830 0001811 262.9595  97.1042 15.02538227 67286
Source of the keplerian elements: AFSPC